STARLINK AD (44262 NORAD) Tracking and Keplerian Element Data

This shows tracking and keplerian element data for the satellite.

Feedback or suggestion? Click here.




ElementValue
Catalog44262
NameSTARLINK AD
Epoch Orbit385
Epoch Day173.91070076
Epoch Year2019
RAAN38.5339
Inclination53.0064
Eccentricity0.0002155
Argument of Perigee125.3003
Mean Anonmoly234.8187
Mean Motion15.0545167
Decay Rate1.324E-05
L11 44262U 19029AD 19173.91070076 .00001324 00000-0 11037-3 0 9995
L22 44262 53.0064 38.5339 0002155 125.3003 234.8187 15.05451670 3859

Live tracking and technical data element details for STARLINK AD (NORAD 44262). STARLINK AD can be tracked NOW for your location showing map with azimuth and elevation plus other details from your city location.

Track the satellite on the map from your city or location and see movement details for azimuth, elevation, latitude, longitude, range, height, and movement on the map or in text.







IsCatalogInMostPopularTable: catalog: 44262, numindb: 23
Update: records affected: 1



GetName: 44262 STARLINK AD

Hit Count: updated at: Tue, 23 Jul 2019 03:43:15 GMT